Austin, MN

8:21 AM CDT on August 27, 2016 (GMT -0500)
Austin Municipal

Weather History for KAUM - May, 2013

Change the Weather History Date:

Saturday, May 25, 2013

  Actual Average Record
Temperature  
Mean Temperature 53 °F -  
Max Temperature 55 °F 67 °F 80 °F (2008)
Min Temperature 51 °F 48 °F 39 °F (2007)
Degree Days  
Heating Degree Days 12    
Growing Degree Days 3 (Base 50)    
Moisture  
Dew Point 47 °F    
Average Humidity 79    
Maximum Humidity 88    
Minimum Humidity 72    
Precipitation  
Precipitation 0.26 in - - ()
Sea Level Pressure  
Sea Level Pressure 30.24 in    
Wind  
Wind Speed 12 mph (SE)    
Max Wind Speed 24 mph    
Max Gust Speed 30 mph    
Visibility 9 miles    
Events Rain , Thunderstorm    
Averages and records for this station are not official NWS values.
T = Trace of Precipitation, MM = Missing Value Source: NWS Daily Summary

Daily Weather History Graph

Daily Weather History Graph

Search for Another Location

Airport or City:

Trip Planner

Search our weather history database for the weather conditions in past years. The results will help you decide how hot, cold, wet, or windy it might be!

Date:

Astronomy

May. 25, 2013 Rise Set
Actual Time 5:37 AM CDT 8:40 PM CDT
Civil Twilight 5:02 AM CDT 9:15 PM CDT
Nautical Twilight 4:19 AM CDT 9:59 PM CDT
Astronomical Twilight 3:26 AM CDT 10:52 PM CDT
Moon 9:28 PM CDT (5/25) 6:05 AM CDT (5/25)
Length of Visible Light 16h 12m
Length of Day
15h 03m
Full, 100% of the Moon is Illuminated
May 25
Full
May 31
Last Quarter
Jun 8
New
Jun 16
First Quarter
Jun 23
Full

Hourly Weather History & Observations

Time (CDT) Temp. Dew Point Humidity Pressure Visibility Wind Dir Wind Speed Gust Speed Precip Events Conditions
12:16 AM 53.6 °F 46.4 °F 77% 30.23 in 10.0 mi ESE 10.4 mph - 0.01 in Rain Rain
12:36 AM 53.6 °F 46.4 °F 77% 30.24 in 10.0 mi ESE 9.2 mph - 0.01 in   Overcast
12:55 AM 53.6 °F 48.2 °F 82% 30.24 in 10.0 mi ESE 6.9 mph - 0.01 in   Light Drizzle
1:16 AM 53.6 °F 46.4 °F 77% 30.24 in 10.0 mi SE 5.8 mph - N/A   Light Drizzle
1:36 AM 53.6 °F 48.2 °F 82% 30.25 in 10.0 mi SE 5.8 mph - 0.01 in Rain , Thunderstorm Rain
1:55 AM 53.6 °F 48.2 °F 82% 30.24 in 10.0 mi SSE 5.8 mph - 0.03 in Rain Light Rain
2:16 AM 53.6 °F 48.2 °F 82% 30.22 in 10.0 mi SE 9.2 mph - N/A   Overcast
2:35 AM 53.6 °F 48.2 °F 82% 30.22 in 10.0 mi ESE 9.2 mph - N/A   Overcast
2:56 AM 53.6 °F 48.2 °F 82% 30.22 in 10.0 mi ESE 9.2 mph - N/A   Overcast
3:16 AM 53.6 °F 48.2 °F 82% 30.23 in 10.0 mi ESE 8.1 mph - N/A   Overcast
3:35 AM 53.6 °F 46.4 °F 77% 30.22 in 10.0 mi ESE 10.4 mph - N/A   Overcast
3:56 AM 53.6 °F 46.4 °F 77% 30.23 in 10.0 mi ESE 11.5 mph - N/A Thunderstorm Overcast
4:16 AM 53.6 °F 46.4 °F 77% 30.23 in 10.0 mi SE 10.4 mph - N/A   Overcast
4:35 AM 53.6 °F 46.4 °F 77% 30.24 in 10.0 mi SE 11.5 mph - N/A   Overcast
4:56 AM 53.6 °F 46.4 °F 77% 30.23 in 10.0 mi SE 10.4 mph - N/A   Overcast
5:16 AM 53.6 °F 46.4 °F 77% 30.21 in 10.0 mi ESE 10.4 mph - N/A   Overcast
5:36 AM 53.6 °F 46.4 °F 77% 30.21 in 10.0 mi ESE 9.2 mph - N/A   Overcast
5:55 AM 53.6 °F 46.4 °F 77% 30.22 in 10.0 mi ESE 10.4 mph - N/A   Overcast
6:16 AM 53.6 °F 46.4 °F 77% 30.24 in 10.0 mi ESE 10.4 mph - N/A   Overcast
6:36 AM 53.6 °F 46.4 °F 77% 30.23 in 10.0 mi East 10.4 mph - N/A   Overcast
6:56 AM 53.6 °F 46.4 °F 77% 30.24 in 10.0 mi ESE 11.5 mph - N/A   Overcast
7:16 AM 53.6 °F 46.4 °F 77% 30.25 in 10.0 mi ESE 12.7 mph 17.3 mph N/A   Overcast
7:36 AM 53.6 °F 46.4 °F 77% 30.24 in 10.0 mi ESE 13.8 mph - N/A   Overcast
7:55 AM 53.6 °F 46.4 °F 77% 30.25 in 10.0 mi SE 12.7 mph - N/A   Overcast
8:16 AM 53.6 °F 46.4 °F 77% 30.25 in 10.0 mi SE 12.7 mph 17.3 mph N/A   Overcast
8:36 AM 53.6 °F 46.4 °F 77% 30.25 in 10.0 mi SE 15.0 mph - N/A   Overcast
8:55 AM 53.6 °F 46.4 °F 77% 30.25 in 10.0 mi SE 16.1 mph 20.7 mph N/A Rain Rain
9:16 AM 51.8 °F 46.4 °F 82% 30.26 in 5.0 mi SE 13.8 mph 20.7 mph 0.04 in Rain Heavy Rain
9:36 AM 51.8 °F 46.4 °F 82% 30.24 in 7.0 mi SE 19.6 mph 25.3 mph 0.06 in Rain Heavy Rain
9:55 AM 51.8 °F 46.4 °F 82% 30.22 in 3.0 mi SE 16.1 mph - 0.13 in Rain Light Rain
10:16 AM 51.8 °F 48.2 °F 88% 30.21 in 5.0 mi SE 15.0 mph 19.6 mph 0.01 in Rain Heavy Rain
10:36 AM 51.8 °F 48.2 °F 88% 30.22 in 5.0 mi SE 15.0 mph 20.7 mph 0.02 in Rain Light Rain
10:55 AM 51.8 °F 48.2 °F 88% 30.22 in 7.0 mi SE 15.0 mph 23.0 mph 0.02 in   Overcast
11:16 AM 51.8 °F 48.2 °F 88% 30.23 in 5.0 mi SE 13.8 mph 21.9 mph N/A   Drizzle
11:35 AM 51.8 °F 48.2 °F 88% 30.25 in 3.0 mi SE 10.4 mph - N/A Rain Light Rain
11:56 AM 51.8 °F 48.2 °F 88% 30.26 in 2.5 mi SE 12.7 mph 16.1 mph N/A Rain Light Rain
12:15 PM 51.8 °F 48.2 °F 88% 30.27 in 3.0 mi SSE 10.4 mph - 0.01 in   Drizzle
12:36 PM 51.8 °F 48.2 °F 88% 30.27 in 3.0 mi SE 9.2 mph - 0.02 in Rain Light Rain
12:56 PM 51.8 °F 48.2 °F 88% 30.28 in 2.5 mi SSE 6.9 mph - N/A   Drizzle
1:15 PM 51.8 °F 48.2 °F 88% 30.27 in 1.8 mi SE 13.8 mph 17.3 mph 0.03 in Rain Rain
1:36 PM 51.8 °F 48.2 °F 88% 30.27 in 2.0 mi ESE 10.4 mph - 0.05 in Rain Light Rain
1:56 PM 51.8 °F 48.2 °F 88% 30.25 in 5.0 mi SE 15.0 mph - N/A   Overcast
2:15 PM 51.8 °F 48.2 °F 88% 30.26 in 10.0 mi SE 17.3 mph 20.7 mph N/A   Overcast
2:36 PM 51.8 °F 48.2 °F 88% 30.26 in 10.0 mi SE 17.3 mph - N/A   Overcast
2:55 PM 53.6 °F 48.2 °F 82% 30.26 in 10.0 mi SE 16.1 mph 24.2 mph N/A   Overcast
3:16 PM 53.6 °F 48.2 °F 82% 30.24 in 10.0 mi ESE 19.6 mph 25.3 mph N/A   Overcast
3:35 PM 53.6 °F 48.2 °F 82% 30.24 in 10.0 mi SE 16.1 mph 24.2 mph N/A   Overcast
3:55 PM 53.6 °F 48.2 °F 82% 30.24 in 10.0 mi SE 18.4 mph 25.3 mph N/A   Overcast
4:16 PM 53.6 °F 46.4 °F 77% 30.24 in 10.0 mi SE 16.1 mph - N/A   Overcast
4:35 PM 53.6 °F 48.2 °F 82% 30.23 in 10.0 mi SE 19.6 mph 25.3 mph N/A   Overcast
4:56 PM 53.6 °F 46.4 °F 77% 30.23 in 10.0 mi SE 17.3 mph 26.5 mph N/A   Overcast
5:16 PM 55.4 °F 46.4 °F 72% 30.23 in 10.0 mi SE 24.2 mph 29.9 mph N/A   Overcast
5:36 PM 55.4 °F 46.4 °F 72% 30.22 in 10.0 mi SE 19.6 mph 25.3 mph N/A   Overcast
5:55 PM 55.4 °F 46.4 °F 72% 30.23 in 10.0 mi SE 19.6 mph 25.3 mph N/A   Overcast
6:15 PM 53.6 °F 46.4 °F 77% 30.22 in 10.0 mi SE 19.6 mph 28.8 mph N/A   Overcast
6:36 PM 53.6 °F 46.4 °F 77% 30.22 in 10.0 mi SE 20.7 mph - N/A   Overcast
6:56 PM 53.6 °F 46.4 °F 77% 30.22 in 10.0 mi SE 18.4 mph 24.2 mph N/A   Overcast
7:15 PM 53.6 °F 46.4 °F 77% 30.22 in 10.0 mi SE 19.6 mph 24.2 mph N/A   Overcast
7:36 PM 53.6 °F 44.6 °F 72% 30.21 in 10.0 mi SE 18.4 mph - N/A   Overcast
7:56 PM 53.6 °F 44.6 °F 72% 30.22 in 10.0 mi SE 17.3 mph 24.2 mph N/A   Overcast
8:15 PM 53.6 °F 44.6 °F 72% 30.22 in 10.0 mi SE 15.0 mph - N/A   Overcast
8:36 PM 53.6 °F 44.6 °F 72% 30.22 in 10.0 mi SE 12.7 mph - N/A   Overcast
8:56 PM 53.6 °F 44.6 °F 72% 30.22 in 10.0 mi SE 15.0 mph - N/A   Overcast
9:15 PM 51.8 °F 44.6 °F 76% 30.23 in 10.0 mi SE 11.5 mph - N/A   Overcast
9:36 PM 51.8 °F 44.6 °F 76% 30.23 in 10.0 mi SE 12.7 mph 18.4 mph N/A   Overcast
9:55 PM 51.8 °F 44.6 °F 76% 30.23 in 10.0 mi SE 15.0 mph - N/A   Overcast
10:16 PM 51.8 °F 44.6 °F 76% 30.23 in 10.0 mi SE 12.7 mph - N/A   Overcast
10:36 PM 51.8 °F 44.6 °F 76% 30.23 in 10.0 mi SE 12.7 mph - N/A   Overcast
10:55 PM 51.8 °F 44.6 °F 76% 30.23 in 10.0 mi ESE 13.8 mph 18.4 mph N/A   Overcast
11:16 PM 51.8 °F 44.6 °F 76% 30.23 in 10.0 mi ESE 11.5 mph - N/A   Overcast
11:35 PM 51.8 °F 44.6 °F 76% 30.23 in 10.0 mi ESE 13.8 mph - N/A   Overcast
11:56 PM 51.8 °F 44.6 °F 76% 30.21 in 10.0 mi ESE 12.7 mph - N/A   Overcast